{"data":{"norad_id":60190,"epoch":"2026-05-24T17:31:49.876032Z","epoch_age_seconds":105129,"freshness":"FRESH","line1":"1 60190U 24124H   26144.73043838 -.00000494  00000+0  77954-6 0  9997","line2":"2 60190  53.1588 146.6598 0001143  73.7888 286.3256 15.69710172108478","mean_motion":15.69710172,"eccentricity":0.0001143,"inclination_deg":53.1588,"raan_deg":146.6598,"arg_perigee_deg":73.7888,"mean_anomaly_deg":286.3256,"bstar":7.7954e-7,"rev_number":10847,"period_min":91.736680164674,"perigee_km":358.95612045125,"apogee_km":360.49639599208,"semimajor_km":6737.8632582217,"source":"CELESTRAK","updated_at":"2026-05-25T13:38:19.194593Z"}}